Location: Fort Worth, Tx
(32.7431°N, 97.3695°W)
Time: 18:08:18
(UTC-04:00)

Transit 4A - Pass Details

Date: 07 March 2024
Orbit: 871 x 972 km, 66.8° (Epoch: 21 April)

Event Time Altitude Azimuth Distance (km) Brightness Sun altitude
Rises 11:11:28 0° 308° (NW) 3,460 10.4 38.4°
Reaches altitude 10° 11:15:41 10° 279° (W) 2,516 9.9 39.1°
Maximum altitude 11:17:45 12° 257° (WSW) 2,374 9.9 39.4°
Drops below altitude 10° 11:19:50 10° 236° (SW) 2,516 10.2 39.7°
Sets 11:24:05 0° 207° (SSW) 3,461 11.1 40.4°
